OSCAR 7 (AO-7) 1 07530U 74089B 25343.48720402 -.00000041 00000+0 31902-4 0 9991 2 07530 101.9966 349.7207 0012352 132.7545 35.8805 12.53694084336745 PHASE 3B (AO-10) 1 14129U 83058B 25342.99902888 .00000089 00000+0 00000+0 0 9995 2 14129 26.0660 251.8254 6065317 62.5828 345.6249 2.05870494291571 UOSAT 2 (UO-11) 1 14781U 84021B 25343.43590772 .00002899 00000+0 30518-3 0 9997 2 14781 97.7811 306.5155 0009276 91.2582 268.9699 14.90123577228866 LUSAT (LO-19) 1 20442U 90005G 25343.47633155 .00000301 00000+0 12423-3 0 9995 2 20442 98.8962 354.9498 0012309 46.3354 313.8848 14.34042729875201 EYESAT A (AO-27) 1 22825U 93061C 25343.43235413 .00000271 00000+0 12021-3 0 9998 2 22825 98.7151 45.6918 0007418 300.7779 59.2672 14.30875082679863 ITAMSAT (IO-26) 1 22826U 93061D 25343.39801859 .00000304 00000+0 13173-3 0 9993 2 22826 98.7098 45.5562 0007834 282.2724 77.7581 14.31295731680161 RADIO ROSTO (RS-15) 1 23439U 94085A 25343.49870844 .00000064 00000+0 30280-2 0 9992 2 23439 64.8167 249.9918 0149561 39.1156 322.0469 11.27583237274512 JAS-2 (FO-29) 1 24278U 96046B 25343.37189840 .00000019 00000+0 57131-4 0 9995 2 24278 98.5465 212.9594 0349055 228.7300 128.3291 13.53262652447491 TECHSAT 1B (GO-32) 1 25397U 98043D 25343.47547573 .00000193 00000+0 10363-3 0 9997 2 25397 98.9917 326.6122 0002137 62.6184 297.5211 14.24375717424326 ISS (ZARYA) 1 25544U 98067A 25343.44535137 .00013761 00000+0 25353-3 0 9997 2 25544 51.6308 158.7912 0003352 224.7147 135.3571 15.49444513542341 PCSAT (NO-44) 1 26931U 01043C 25343.45323323 .00000397 00000+0 17909-3 0 9998 2 26931 67.0517 14.9781 0007418 270.1589 89.8662 14.31852309263287 SAUDISAT 1C (SO-50) 1 27607U 02058C 25343.43233990 .00003462 00000+0 43028-3 0 9991 2 27607 64.5542 355.8210 0072085 297.2117 62.1655 14.82368788236321 CUTE-1 (CO-55) 1 27844U 03031E 25343.49875444 .00000678 00000+0 31305-3 0 9999 2 27844 98.6766 349.4436 0009953 22.5650 337.5964 14.24175329164677 CUBESAT XI-IV (CO-57) 1 27848U 03031J 25343.46369544 .00000563 00000+0 26700-3 0 9995 2 27848 98.6795 349.2737 0010152 39.6495 320.5424 14.23483841164385 MOZHAETS 4 (RS-22) 1 27939U 03042A 25343.52343535 .00002580 00000+0 40992-3 0 9997 2 27939 98.3364 157.6381 0011921 145.3577 308.1504 14.72956667187620 CUBESAT XI-V 1 28895U 05043F 25343.38252295 .00003431 00000+0 55541-3 0 9990 2 28895 98.2724 130.4036 0015410 88.1863 272.1109 14.71879969 73821 CUTE-1.7+APD II (CO-65) 1 32785U 08021C 25343.51804068 .00009675 00000+0 64992-3 0 9994 2 32785 97.8093 316.5606 0008087 325.0161 35.0534 15.06983207956608 SEEDS II (CO-66) 1 32791U 08021J 25343.49192417 .00024665 00000+0 98680-3 0 9993 2 32791 97.7451 328.5251 0000926 237.0563 123.0585 15.25077623958303 YUBILEINY (RS-30) 1 32953U 08025A 25343.49144391 .00000019 00000+0 62788-4 0 9993 2 32953 82.5019 113.4435 0019149 8.2158 351.9232 12.43171637796123 KKS-1 (KISEKI) 1 33499U 09002H 25343.43466178 .00003198 00000+0 40574-3 0 9998 2 33499 98.1174 257.9825 0007826 174.8131 185.3164 14.82414548908079 SWISSCUBE 1 35932U 09051B 25343.28031363 .00002540 00000+0 51676-3 0 9998 2 35932 98.4140 242.7985 0008087 83.4770 276.7351 14.61942431861404 BEESAT-1 1 35933U 09051C 25343.26406433 .00002133 00000+0 44218-3 0 9993 2 35933 98.4072 242.8003 0006536 94.8584 265.3362 14.61265016861444 ITUPSAT1 1 35935U 09051E 25343.50183844 .00001972 00000+0 42069-3 0 9992 2 35935 98.4168 242.4238 0008632 103.5696 256.6466 14.60022512861055 XIWANG-1 (HOPE-1) 1 36122U 09072B 25343.47366513 -.00000095 00000+0 -13197-3 0 9993 2 36122 100.3771 295.5731 0007139 310.9821 49.0674 13.16431264768047 O/OREOS (USA 219) 1 37224U 10062C 25343.47669852 .00004684 00000+0 45941-3 0 9998 2 37224 71.9699 149.7395 0012996 64.4793 295.7719 14.92644401 88325 JUGNU 1 37839U 11058B 25343.42634397 .00000653 00000+0 20110-3 0 9990 2 37839 19.9622 21.2260 0018693 140.1308 247.9760 14.13694798732142 SRMSAT 1 37841U 11058D 25343.48196718 .00000551 00000+0 15528-3 0 9993 2 37841 19.9703 127.6683 0011707 277.3099 127.1435 14.11509916730987 STRAND-1 1 39090U 13009E 25343.46664965 .00000716 00000+0 25569-3 0 9990 2 39090 98.3822 163.4420 0009770 79.4942 280.7345 14.37001113669813 ZACUBE-1 (TSHEPISOSAT) 1 39417U 13066B 25343.38762728 .00006877 00000+0 56172-3 0 9991 2 39417 97.8076 299.9272 0041771 157.6006 202.7053 14.99035399652271 GOMX-1 1 39430U 13066Q 25343.56314302 .00003157 00000+0 48636-3 0 9991 2 39430 97.6591 190.8868 0129883 326.8143 32.4965 14.68559333642071 CUBEBUG-2 (LO-74) 1 39440U 13066AA 25343.45284407 .00008305 00000+0 80008-3 0 9991 2 39440 97.8703 287.1282 0058296 296.9671 62.5601 14.91912438648680 FUNCUBE-1 (AO-73) 1 39444U 13066AE 25343.39912655 .00011416 00000+0 77572-3 0 9990 2 39444 97.8055 306.6365 0040261 126.7472 233.7462 15.05861711651061 UWE-3 1 39446U 13066AG 25343.40813572 .00007563 00000+0 67940-3 0 9998 2 39446 97.8472 293.7555 0049480 230.7749 128.9074 14.95046103649203 UNISAT-6 1 40012U 14033C 25343.38137019 .00005747 00000+0 63917-3 0 9998 2 40012 97.7620 134.9144 0045814 335.3253 24.5771 14.86765852617947 DUCHIFAT-1 1 40021U 14033M 25343.33270287 .00048192 00000+0 11939-2 0 9995 2 40021 98.0785 14.7926 0007849 45.5050 314.6834 15.40228753626327 QB50P1 1 40025U 14033R 25343.44829161 .00013484 00000+0 73764-3 0 9993 2 40025 98.0971 336.8345 0010283 144.3425 215.8494 15.14356083624276 LILACSAT-2 1 40908U 15049K 25343.49710916 .00021189 00000+0 45697-3 0 9998 2 40908 97.4916 8.7791 0006865 210.2564 149.8289 15.44571293566409 FOX-1A (AO-85) 1 40967U 15058D 25343.51896544 .00007001 00000+0 62943-3 0 9998 2 40967 64.7748 147.8367 0135302 131.2472 230.0391 14.89611690 85303 CAS-2T & KS-1Q 1 41847U 16066G 25343.22815391 .00001863 00000+0 27184-3 0 9993 2 41847 98.4040 56.0024 0343542 345.8068 13.3652 14.44118885477375 RADFXSAT (FOX-1B) 1 43017U 17073E 25343.46139969 .00016334 00000+0 77288-3 0 9998 2 43017 97.4938 209.7322 0159866 261.8334 96.4735 15.08749166436749 DIWATA-2B 1 43678U 18084H 25343.51559806 .00002033 00000+0 17124-3 0 9990 2 43678 98.1022 166.8484 0007485 53.9598 306.2316 14.99406113387784 ES'HAIL 2 1 43700U 18090A 25343.21394770 .00000147 00000+0 00000+0 0 9992 2 43700 0.0136 295.5606 0001307 338.7445 266.7679 1.00272925 25776 FOX-1CLIFF (AO-95) 1 43770U 18099N 25343.11074498 .00014762 00000+0 65312-3 0 9998 2 43770 97.4676 39.4198 0008491 300.9151 59.1249 15.21743571384266 ITASAT 1 43786U 18099AE 25343.39775747 .00010278 00000+0 53752-3 0 9993 2 43786 97.4322 33.7786 0011965 296.9629 63.0381 15.15987772384127 JY1SAT (JO-97) 1 43803U 18099AX 25343.14535124 .00019443 00000+0 74258-3 0 9996 2 43803 97.4415 40.9731 0005633 215.5812 144.5052 15.26659824384560 UWE-4 1 43880U 18111E 25343.30716914 .00032137 00000+0 97120-3 0 9990 2 43880 97.5853 259.7369 0007651 294.3257 65.7186 15.34144319381554 DUCHIFAT-3 1 44854U 19089C 25342.83480616 .09794280 36047-5 11773-2 0 9999 2 44854 36.9155 249.5046 0006919 243.1769 116.8309 16.35254048331523 TIANYAN 01 1 44881U 19093C 25343.46860336 .00001175 00000+0 14013-3 0 9995 2 44881 97.7760 55.1732 0013681 356.9648 3.1482 14.86089765323231 RS-44 & BREEZE-KM R/B 1 44909U 19096E 25343.41772968 .00000040 00000+0 12171-3 0 9990 2 44909 82.5206 105.8158 0216922 227.8786 130.3700 12.79745929278074 SALSAT 1 46495U 20068K 25343.45032340 .00012582 00000+0 48809-3 0 9991 2 46495 97.8783 330.5448 0008741 243.2846 116.7496 15.26234731286383 XW-3 (CAS-9) 1 50466U 21131B 25343.52572183 .00000855 00000+0 27914-3 0 9992 2 50466 98.5057 71.9635 0003290 319.0217 41.0724 14.41105260207792 GREENCUBE (IO-117) 1 53109U 22080E 25341.44020854 -.00000003 00000+0 00000+0 0 9994 2 53109 70.1574 4.9251 0008983 329.2025 30.8107 6.42583177 79745 STRATOSAT-TK 1 (RS52S) 1 57167U 23091B 25342.98109133 .00274633 00000+0 18466-2 0 9992 2 57167 97.5206 55.1154 0004202 337.8984 22.2098 15.74374697136284 UMKA 1 (RS40S) 1 57172U 23091G 25343.44660631 .00009720 00000+0 47850-3 0 9998 2 57172 97.5340 37.9251 0014879 63.7684 296.5077 15.18096851135191 CUBESX-HSE 3 (RS42S) 1 57178U 23091N 25343.53204716 .00018142 00000+0 71325-3 0 9994 2 57178 97.5373 42.1956 0013093 47.1206 313.1129 15.25646176135458 MONITOR-3 (RS58S) 1 57180U 23091Q 25343.52765759 .00015938 00000+0 67231-3 0 9996 2 57180 97.5366 40.9030 0013975 51.0559 309.1920 15.23296367135372 MONITOR-4 (RS57S) 1 57182U 23091S 25343.51725742 .00015598 00000+0 65669-3 0 9990 2 57182 97.5361 40.8535 0014000 51.4901 308.7588 15.23365146135370 MONITOR-2 (RS39S) 1 57184U 23091U 25343.52144885 .00008545 00000+0 43889-3 0 9990 2 57184 97.5366 38.0133 0013006 56.1721 304.0748 15.16671708135189 SVYATOBOR 1 (RS60S) 1 57187U 23091X 25343.53562236 .00013236 00000+0 56974-3 0 9990 2 57187 97.5373 41.5369 0011199 44.5193 315.6941 15.22684636135415 VIZARD-METEO (RS38S) 1 57189U 23091Z 25343.43440826 .00021019 00000+0 74240-3 0 9995 2 57189 97.5364 44.7934 0009041 34.2379 325.9442 15.29200065135625 NANOZOND 1 (RS49S) 1 57190U 23091AA 25343.52492605 .00087272 00000+0 14078-2 0 9994 2 57190 97.5285 53.2347 0004634 13.0460 347.0912 15.52595802136205 POLYTECH-UNIVERSE 3 (R*) 1 57191U 23091AB 25343.50584530 .00009094 00000+0 46376-3 0 9995 2 57191 97.5339 37.5117 0017714 70.7166 289.5982 15.16837659135173 UTMN 2 (RS27S) 1 57203U 23091AP 25343.52873981 .00018103 00000+0 69249-3 0 9997 2 57203 97.5364 43.5871 0009848 37.2681 322.9239 15.26594399135559 KUZGTU 1 (RS47S) 1 57217U 23091AV 25343.44800101 .00017184 00000+0 69420-3 0 9996 2 57217 97.5347 41.4000 0013314 50.0075 310.2329 15.24745310135413 SONATE-2 1 59112U 24043Q 25343.34970903 .00037495 00000+0 79881-3 0 9996 2 59112 97.5335 119.4748 0008945 174.2242 185.9111 15.44798483 98459 MESAT1 1 60209U 24125G 25343.09929909 .00036419 00000+0 74576-3 0 9999 2 60209 97.2524 193.4693 0013842 191.9977 168.0945 15.45905039 80040 OOV-CUBE (TUBSAT-30) 1 60240U 24128F 25342.88451937 .00003625 00000+0 28440-3 0 9996 2 60240 61.9937 168.6021 0058570 93.5173 267.2619 15.01568468 77524 COLIBRI-S (RS67S) 1 61746U 24199M 25343.56789289 .00027878 00000+0 71931-3 0 9995 2 61746 97.3257 211.4999 0008276 245.5178 114.5205 15.39097238108160 HORS 3 (RS81S) 1 61753U 24199U 25343.56988758 .00033572 00000+0 77762-3 0 9991 2 61753 97.3228 212.0950 0006268 252.6253 107.4309 15.42351017108216 HORS 4 (RS82S) 1 61754U 24199V 25343.57331463 .00039217 00000+0 85668-3 0 9994 2 61754 97.3211 212.5176 0006378 250.8485 109.2073 15.44067799108247 HORIZON (RS59S) 1 61757U 24199Y 25343.52486469 .00071600 00000+0 11355-2 0 9992 2 61757 97.3217 214.5201 0005351 226.7411 133.3396 15.53129282108363 ARCTICSAT 1 (RS74S) 1 61762U 24199AD 25343.58242970 .00063147 00000+0 10552-2 0 9996 2 61762 97.3223 214.4389 0005553 221.2394 138.8440 15.51699138108366 SIT-2086 1 61764U 24199AF 25343.57352858 .00027718 00000+0 64033-3 0 9992 2 61764 97.3227 212.8519 0006175 240.5982 119.4649 15.42469839105105 MORDOVIA-IOT (RS50S) 1 61765U 24199AG 25343.52297867 .00178919 00000+0 15791-2 0 9992 2 61765 97.3132 216.9934 0003212 182.2074 177.9174 15.68130433105385 RUZAEVKA 390 (RS44S) 1 61766U 24199AH 25343.54609499 .00110859 00000+0 13082-2 0 9993 2 61766 97.3170 216.0570 0003573 203.5420 156.5675 15.60968546105326 HYPERVIEW 1G (RS66S) 1 61772U 24199AP 25343.57461616 .00051673 00000+0 10032-2 0 9990 2 61772 97.3209 212.9703 0007959 252.4026 107.6355 15.47451968105126 ALTAIR (RS65S) 1 61779U 24199AW 25343.54112999 .00014195 00000+0 45089-3 0 9990 2 61779 97.3258 209.3630 0012329 267.4929 92.4901 15.32680199108025 ASRTU-1 (AO-123) 1 61781U 24199AY 25343.53723683 .00014999 00000+0 48876-3 0 9999 2 61781 97.3248 209.0224 0012872 268.8061 91.1706 15.31841265104856 TUSUR GO (RS78S) 1 61782U 24199AZ 25343.52404727 .00076922 00000+0 12500-2 0 9992 2 61782 97.3178 213.6159 0006672 249.3075 110.7462 15.52419403105167 SAMSAT-IONOSPHERE (RS7*) 1 61784U 24199BB 25343.50536219 .00038332 00000+0 87704-3 0 9996 2 61784 97.3223 211.7371 0009801 258.0711 101.9438 15.42662593108185 RTU MIREA 1 (RS51S) 1 61785U 24199BC 25343.52482727 .00041618 00000+0 91647-3 0 9995 2 61785 97.3218 212.0053 0009356 255.3941 104.6270 15.43791139105058 HADES-R 1 62690U 25009CK 25343.17066040 .00170685 00000+0 22860-2 0 9996 2 62690 97.3878 65.6565 0001141 232.0247 128.0906 15.57405301 50223 TEVEL2-4 1 63213U 25052D 25343.50515894 .00026523 00000+0 10039-2 0 9995 2 63213 97.4102 235.3569 0005243 69.8652 290.3150 15.26894417 41094 TEVEL2-5 1 63214U 25052E 25343.24830949 .00024270 00000+0 92157-3 0 9997 2 63214 97.4097 235.0900 0005159 70.4231 289.7564 15.26809240 41058 TEVEL2-6 1 63215U 25052F 25343.45212766 .00026305 00000+0 99950-3 0 9991 2 63215 97.4101 235.2807 0005243 69.8774 290.3028 15.26769915 41081 TEVEL2-1 1 63217U 25052H 25343.23189118 .00022973 00000+0 88241-3 0 9991 2 63217 97.4078 234.8760 0005447 79.5203 280.6649 15.26436695 41043 TEVEL2-3 1 63218U 25052J 25343.23114367 .00022580 00000+0 86687-3 0 9992 2 63218 97.4076 234.8807 0005444 80.1166 280.0687 15.26457113 41041 TEVEL2-2 1 63219U 25052K 25343.49487978 .00025500 00000+0 97843-3 0 9993 2 63219 97.4072 235.1376 0005494 79.4779 280.7079 15.26449393 41086 TEVEL2-9 1 63237U 25052AD 25343.45474384 .00024673 00000+0 98937-3 0 9991 2 63237 97.4137 234.8085 0009240 90.8123 269.4174 15.24958462 41040 TEVEL2-7 1 63238U 25052AE 25343.27145941 .00021760 00000+0 87731-3 0 9990 2 63238 97.4142 234.6021 0009331 91.5656 268.6651 15.24802020 41011 TEVEL2-8 1 63239U 25052AF 25342.68640467 .00022915 00000+0 92488-3 0 9996 2 63239 97.4138 234.0077 0009396 93.2743 266.9570 15.24753662 40926 HADES-ICM 1 63492U 25052BN 25343.25092669 .00079200 00000+0 20426-2 0 9997 2 63492 97.4068 236.7250 0011814 83.5547 276.7043 15.38813653 41166 INNOSAT 16 (RS92S7) 1 64878U 25155C 25343.26861214 .00006214 00000+0 26899-3 0 9997 2 64878 97.4334 306.6779 0012608 127.7361 232.5020 15.22707784 51741 GEOSCAN 6 (RS92S6) 1 64879U 25155D 25343.26441029 .00015076 00000+0 59824-3 0 9996 2 64879 97.4337 307.0068 0010273 120.6757 239.5495 15.25404733 51764 GEOSCAN 1 (RS92S1) 1 64880U 25155E 25343.25474222 .00015885 00000+0 62528-3 0 9991 2 64880 97.4340 307.0253 0010226 121.1190 239.1053 15.25663246 51763 239ALFEROV (RS61S) 1 64881U 25155F 25343.28370830 .00019290 00000+0 73961-3 0 9992 2 64881 97.4348 307.1593 0010015 120.1429 240.0804 15.26500195 51770 GEOSCAN 2 (RS92S2) 1 64890U 25155Q 25343.48239205 .00016063 00000+0 62596-3 0 9991 2 64890 97.4337 307.3209 0009794 109.1103 251.1197 15.26000293 51808 GEOSCAN 5 (RS92S5) 1 64891U 25155R 25343.44550458 .00020528 00000+0 77840-3 0 9993 2 64891 97.4341 307.3798 0008601 123.5218 236.6843 15.26868021 51807 GEOSCAN 4 (RS92S4) 1 64892U 25155S 25343.44274669 .00020780 00000+0 78617-3 0 9994 2 64892 97.4344 307.3870 0008637 124.2323 235.9735 15.26939833 51808 GEOSCAN 3 (RS92S3) 1 64893U 25155T 25343.47967802 .00023659 00000+0 87544-3 0 9993 2 64893 97.4339 307.4845 0008444 125.4359 234.7670 15.27648899 51810 INNOSAT 3 (RS92S0) 1 64894U 25155U 25343.46271197 .00036580 00000+0 12552-2 0 9991 2 64894 97.4324 307.6493 0008211 124.1975 236.0045 15.30031646 51820